Home   Weather   Schweinfurt   Past weeks

Flag for Germany Past Weather in Schweinfurt, Bavaria, Germany — Yesterday and Last 2 Weeks

Now
66 °F

Broken clouds.


Feels Like: 66 °F
Forecast: 60 / 73 °F
Wind: 3 mph from Southwest

Location: Illesheim

Current Time: Jul 22, 2017 at 9:00:34 am

Latest Report: Jul 22, 2017 at 7:58 am


Visibility: N/A

Pressure: 29.92 "Hg

Humidity: 85%

Dew Point: 61 °F

Location of SchweinfurtLocation

Past Weather in Schweinfurt — Graph

°F

Schweinfurt Temperature Yesterday

Maximum temperature yesterday: 82 °F (at 4:58 pm)
Minimum temperature yesterday: 57 °F (at 5:58 am)
Average temperature yesterday: 71 °F

High & Low Weather Summary for the Past Weeks

 TemperatureHumidityPressure
High91 °F (Jul 19, 3:58 pm)100% (Jul 7, 5:58 am)30.29 "Hg (Jul 7, 5:58 am)
Low46 °F (Jul 13, 5:58 am)32% (Jul 19, 4:58 pm)29.77 "Hg (Jul 10, 2:58 pm)
Average68 °F73%29.99 "Hg
* Reported Jul 7 5:58 am — Jul 22 5:58 am, Schweinfurt. Weather by CustomWeather, © 2017

Note: Actual official high and low records may vary slightly from our data, if they occured in-between our weather recording intervals... More about our weather records

Advertising

Schweinfurt Weather History for the Previous 24 Hours

Scroll right to see more
 ConditionsComfort  
Time TempWeatherWind HumidityBarometerVisibility
5:58 am
Sat, Jul 22
62 °FScattered clouds.6 mph91%29.89 "HgN/A
4:58 am62 °FPassing clouds.No wind96%29.89 "HgN/A
3:59 am63 °FPassing clouds.9 mph94%29.88 "HgN/A
3:14 am64 °FLight rain. Passing clouds.7 mph83%29.88 "HgN/A
1:58 am67 °FPassing clouds.10 mph79%29.87 "HgN/A
1:03 am70 °FPassing clouds.16 mph78%29.87 "HgN/A
11:58 pm
Fri, Jul 21
66 °FClear.No wind82%29.83 "HgN/A
10:58 pm71 °FClear.No wind68%29.83 "HgN/A
9:58 pm71 °FClear.No wind69%29.83 "HgN/A
8:58 pm76 °FSunny.3 mph58%29.83 "HgN/A
7:58 pm80 °FSunny.3 mph49%29.83 "HgN/A
6:58 pm81 °FSunny.7 mph48%29.84 "HgN/A
5:58 pm81 °FPassing clouds.5 mph45%29.87 "HgN/A
4:58 pm82 °FScattered clouds.5 mph45%29.87 "HgN/A
3:58 pm80 °FScattered clouds.3 mph46%29.90 "HgN/A
2:58 pm79 °FScattered clouds.No wind49%29.92 "HgN/A
1:58 pm78 °FPartly sunny.3 mph52%29.93 "HgN/A
12:58 pm77 °FPartly sunny.5 mph53%29.94 "HgN/A
11:58 am75 °FScattered clouds.No wind55%29.96 "HgN/A
10:58 am75 °FSunny.No wind50%29.97 "HgN/A
9:58 am71 °FPartly sunny.No wind63%29.97 "HgN/A
Weather by CustomWeather, © 2017

See weather overviewHow to use our weather pages